Location: Cedar Brake
(32.2526°N, 97.8459°W)
Time: 08:19:17
(UTC+00:00)

SL-16 R/B - Pass Details

Date: 22 April 2026
Orbit: 841 x 845 km, 71.0° (Epoch: 15 May)

Event Time Altitude Azimuth Distance (km) Brightness Sun altitude
Rises 09:50:31 0° 325° (NW) 3,405 5.4 -24.6°
Reaches altitude 10° 09:53:19 10° 313° (NW) 2,466 4.5 -24.1°
Enters shadow 09:53:48 12° 310° (NW) 2,316 4.3 -24.0°
